• Join FlightAware (Why Join?)
  • Login
  • US Flag GB Flag 
08:30 EDT


 

Airport Tracker/Info


-or-


 

Live Flight TrackerFlight Track Log ✈ GJS3707 ✈ 26-May-2013 ✈ KORD - KBOI

Flight Track Log - Related Links

Times and Time Zones

All times are in EDT time to prevent confusion due to time zone crossing. See the GJS3707 flight status page for this flight to view local times or setup timezone preferences in your user account.

Time Position Orientation Groundspeed Altitude Reporting Facility
EDT Latitude Longitude Course Direction KTS MPH feet Rate Location/Type
11:14 41.9833 -87.8667 352° North 153 176 1,500  Level Chicago TRACON
11:15 41.9833 -87.8167 90° East 185 213 3,000 1,500 Climbing Chicago TRACON
11:15 41.9814 -87.8058 104° East 179 206 3,300 1,800 Climbing Chicago Center
11:16 42.0256 -87.7356 50° Northeast 245 282 5,400 2,700 Climbing Chicago Center
11:17 42.1036 -87.7356 360° North 268 308 8,900 2,700 Climbing Chicago Center
11:18 42.3856 -88.0345 340° North  Level FlightAware Approximate
11:18 42.1761 -87.7572 348° North 273 314 11,000  Level Chicago Center
11:19 42.4909 -88.0648 352° North  Level FlightAware Approximate
11:19 42.2611 -87.7592 359° North 302 348 12,600  Level Chicago Center
11:20 42.3544 -87.7950 344° North 328 377 15,100 2,160 Climbing Chicago Center
11:21 42.4381 -87.8497 334° Northwest 334 384 17,000 1,560 Climbing Chicago Center
11:22 42.5264 -87.9044 335° Northwest 346 398 18,300 1,680 Climbing Chicago Center
11:23 42.6183 -87.9631 335° Northwest 362 417 20,500 1,860 Climbing Chicago Center
11:24 42.7086 -88.0211 335° Northwest 359 413 22,100 1,500 Climbing Chicago Center
11:25 42.8008 -88.0814 334° Northwest 365 420 23,600 1,500 Climbing Chicago Center
11:26 42.8947 -88.1411 335° Northwest 371 427 25,200 1,500 Climbing Chicago Center
11:28 42.9892 -88.2017 335° Northwest 373 429 26,700 1,320 Climbing Chicago Center
11:29 43.0833 -88.2622 335° Northwest 373 429 27,900 1,080 Climbing Chicago Center
11:30 43.1608 -88.3553 319° Northwest 372 428 28,900 960 Climbing Chicago Center
11:31 43.2325 -88.4633 312° West 380 437 29,900 960 Climbing Chicago Center
11:32 43.3039 -88.5731 312° West 380 437 30,900 960 Climbing Chicago Center
11:33 43.3775 -88.6853 312° West 386 444 31,900 960 Climbing Chicago Center
11:34 43.4500 -88.7956 312° West 385 443 32,900 960 Climbing Chicago Center
11:35 43.5208 -88.9028 312° West 378 435 33,900 540 Climbing Chicago Center
11:36 43.6033 -89.0319 311° West 382 440 34,000  Climbing Chicago Center
11:37 43.6764 -89.1453 312° West 391 450 34,000  Level Chicago Center
11:38 43.7489 -89.2575 312° West 392 451 34,000  Level Chicago Center
11:39 43.8197 -89.3686 311° West 387 445 34,000  Level Chicago Center
11:40 43.8917 -89.4836 311° West 392 451 34,000  Level Chicago Center
11:41 43.9650 -89.5978 312° West 395 455 34,000  Level Chicago Center
11:41 43.9872 -89.6347 310° West 394 453 34,000  Level Minneapolis Center
11:42 44.0364 -89.7133 311° West 394 453 34,000  Level Chicago Center
11:43 44.1086 -89.8278 311° West 395 455 34,000  Level Chicago Center
11:43 44.1447 -89.8853 311° West 398 458 34,000  Level Minneapolis Center
11:44 44.2169 -90.0011 311° West 397 457 34,000  Level Minneapolis Center
11:45 44.2892 -90.1186 311° West 397 457 34,000  Level Minneapolis Center
11:46 44.3333 -90.2594 294° West 393 452 34,000  Level Minneapolis Center
11:47 44.3733 -90.4022 291° West 394 453 34,000  Level Minneapolis Center
11:48 44.4194 -90.5700 291° West 396 456 34,000  Level Minneapolis Center
11:49 44.4603 -90.7142 292° West 397 457 34,000  Level Minneapolis Center
11:50 44.4997 -90.8614 291° West 404 465 34,000  Level Minneapolis Center
11:51 44.5375 -91.0014 291° West 402 463 34,000  Level Minneapolis Center
11:52 44.5778 -91.1486 291° West 404 465 34,000  Level Minneapolis Center
11:53 44.6172 -91.2981 290° West 409 471 34,000  Level Minneapolis Center
11:55 44.6567 -91.4475 290° West 410 472 34,000  Level Minneapolis Center
11:56 44.6969 -91.5975 291° West 413 475 34,000  Level Minneapolis Center
11:57 44.7364 -91.7494 290° West 414 476 34,000  Level Minneapolis Center
11:58 44.7844 -91.9311 290° West 415 478 34,000  Level Minneapolis Center
11:59 44.8317 -92.1125 290° West 415 478 34,000  Level Minneapolis Center
12:00 44.8711 -92.2661 290° West 418 481 34,000  Level Minneapolis Center
12:01 44.9097 -92.4208 289° West 421 484 34,000  Level Minneapolis Center
12:02 44.9486 -92.5764 290° West 422 486 34,000  Level Minneapolis Center
12:03 44.9806 -92.6997 290° West 423 487 34,000  Level Minneapolis Center
12:04 45.0269 -92.8844 290° West 421 484 34,000  Level Minneapolis Center
12:05 45.0736 -93.0728 289° West 429 494 34,000  Level Minneapolis Center
12:06 45.1114 -93.2286 289° West 427 491 34,000  Level Minneapolis Center
12:07 45.1483 -93.3881 288° West 427 491 34,000  Level Minneapolis Center
12:08 45.1600 -93.5494 276° West 421 484 34,000  Level Minneapolis Center
12:09 45.1714 -93.7131 276° West 422 486 34,000  Level Minneapolis Center
12:10 45.1836 -93.8769 276° West 422 486 34,000  Level Minneapolis Center
12:11 45.2003 -94.1078 276° West 423 487 34,000  Level Minneapolis Center
12:12 45.2117 -94.2725 276° West 424 488 34,000  Level Minneapolis Center
12:13 45.2222 -94.4375 275° West 423 487 34,000  Level Minneapolis Center
12:14 45.2339 -94.6011 276° West 420 483 34,000  Level Minneapolis Center
12:15 45.2447 -94.7692 275° West 416 479 34,000  Level Minneapolis Center
12:16 45.2553 -94.9308 275° West 414 476 34,000  Level Minneapolis Center
12:18 45.2642 -95.0906 275° West 411 473 34,000  Level Minneapolis Center
12:19 45.2756 -95.2839 275° West 411 473 34,000  Level Minneapolis Center
12:20 45.2853 -95.4453 275° West 412 474 34,000  Level Minneapolis Center
12:21 45.2972 -95.6397 275° West 414 476 34,000  Level Minneapolis Center
12:22 45.3050 -95.8042 274° West 418 481 34,000  Level Minneapolis Center
12:23 45.3142 -95.9653 275° West 415 478 34,000  Level Minneapolis Center
12:24 45.3239 -96.1297 275° West 418 481 34,000  Level Minneapolis Center
12:25 45.3319 -96.2911 274° West 414 476 34,000  Level Minneapolis Center
12:26 45.3394 -96.4556 274° West 417 480 34,000  Level Minneapolis Center
12:27 45.3475 -96.6189 274° West 418 481 34,000  Level Minneapolis Center
12:28 45.3556 -96.7853 274° West 422 486 34,000  Level Minneapolis Center
12:29 45.3647 -96.9839 274° West 422 486 34,000  Level Minneapolis Center
12:30 45.3719 -97.1511 274° West 425 489 34,000  Level Minneapolis Center
12:31 45.3794 -97.3167 274° West 424 488 34,000  Level Minneapolis Center
12:32 45.3858 -97.4822 273° West 422 486 34,000  Level Minneapolis Center
12:33 45.3936 -97.6447 274° West 417 480 34,000  Level Minneapolis Center
12:34 45.3992 -97.8089 273° West 417 480 34,000  Level Minneapolis Center
12:35 45.4056 -97.9753 273° West 420 483 34,000  Level Minneapolis Center
12:36 45.4106 -98.1414 273° West 421 484 34,000  Level Minneapolis Center
12:37 45.4169 -98.3103 273° West 424 488 34,000  Level Minneapolis Center
12:38 45.4133 -98.4761 268° West 424 488 34,000  Level Minneapolis Center
12:39 45.3922 -98.6728 261° West 422 486 34,000  Level Minneapolis Center
12:40 45.3761 -98.8353 262° West 419 482 34,000  Level Minneapolis Center
12:41 45.3614 -98.9992 263° West 419 482 34,000  Level Minneapolis Center
12:42 45.3467 -99.1619 263° West 417 480 34,000  Level Minneapolis Center
12:43 45.3306 -99.3239 262° West 416 479 34,000  Level Minneapolis Center
12:44 45.3158 -99.4856 263° West 415 478 34,000  Level Minneapolis Center
12:45 45.3000 -99.6464 262° West 414 476 34,000  Level Minneapolis Center
12:46 45.2814 -99.8403 262° West 417 480 34,000  Level Minneapolis Center
12:47 45.2658 -100.0006 262° West 417 480 34,000  Level Minneapolis Center
12:48 45.2506 -100.1611 262° West 417 480 34,000  Level Minneapolis Center
12:49 45.2333 -100.3217 261° West 417 480 34,000  Level Minneapolis Center
12:50 45.2156 -100.4808 261° West 413 475 34,000  Level Minneapolis Center
12:51 45.1994 -100.6417 262° West 414 476 34,000  Level Minneapolis Center
12:52 45.1781 -100.8350 261° West 416 479 34,000  Level Minneapolis Center
12:53 45.1606 -100.9947 261° West 413 475 34,000  Level Minneapolis Center
12:54 45.1442 -101.1547 262° West 412 474 34,000  Level Minneapolis Center
12:55 45.1292 -101.2825 261° West 412 474 34,000  Level Minneapolis Center
12:56 45.1078 -101.4736 261° West 411 473 34,000  Level Minneapolis Center
12:57 45.0897 -101.6336 261° West 411 473 34,000  Level Minneapolis Center
12:59 45.0656 -101.7900 258° West 408 470 34,000  Level Minneapolis Center
13:00 45.0328 -101.9444 253° West 408 470 34,000  Level Minneapolis Center
13:01 44.9933 -102.1311 253° West 412 474 34,000  Level Minneapolis Center
13:02 44.9608 -102.2847 253° West 411 473 34,000  Level Minneapolis Center
13:03 44.9292 -102.4397 254° West 411 473 34,000  Level Minneapolis Center
13:04 44.8953 -102.5942 253° West 412 474 34,000  Level Minneapolis Center
13:05 44.8633 -102.7492 254° West 412 474 34,000  Level Minneapolis Center
13:05 44.8417 -102.8425 252° West 414 476 34,000  Level Denver Center
13:06 44.8075 -102.9961 253° West 413 475 34,000  Level Denver Center
13:07 44.7742 -103.1522 253° West 415 478 34,000  Level Denver Center
13:08 44.7397 -103.3069 253° West 415 478 34,000  Level Denver Center
13:09 44.7081 -103.4628 254° West 416 479 34,000  Level Denver Center
13:10 44.7028 -103.6597 268° West 421 484 34,000  Level Denver Center
13:11 44.6975 -103.8158 267° West 419 482 34,000  Level Denver Center
13:12 44.6933 -103.9186 267° West 421 484 34,000  Level Salt Lake Center
13:12 44.6917 -103.9719 268° West 417 480 34,000  Level Denver Center
13:13 44.6847 -104.1539 267° West 417 480 34,000  Level Denver Center
13:14 44.6808 -104.2569 267° West 419 482 34,000  Level Salt Lake Center
13:15 44.6733 -104.4131 266° West 419 482 34,000  Level Salt Lake Center
13:16 44.6708 -104.4936 268° West 421 484 34,000  Level Denver Center
13:17 44.6639 -104.6489 266° West 419 482 34,000  Level Denver Center
13:17 44.6594 -104.7511 267° West 419 482 34,000  Level Salt Lake Center
13:18 44.6531 -104.9081 267° West 420 483 34,000  Level Salt Lake Center
13:19 44.6489 -104.9869 266° West 419 482 34,000  Level Denver Center
13:20 44.6406 -105.1697 266° West 420 483 34,000  Level Denver Center
13:21 44.6325 -105.3264 266° West 421 484 34,000  Level Denver Center
13:22 44.6233 -105.5208 266° West 422 486 34,000  Level Denver Center
13:23 44.6144 -105.7028 266° West 421 484 34,000  Level Denver Center
13:24 44.6044 -105.8606 265° West 423 487 34,000  Level Denver Center
13:25 44.5953 -106.0444 266° West 423 487 34,000  Level Denver Center
13:26 44.5861 -106.2014 265° West 422 486 34,000  Level Denver Center
13:26 44.5833 -106.2536 266° West 421 484 34,000  Level Salt Lake Center
13:27 44.5731 -106.4117 265° West 425 489 34,000  Level Salt Lake Center
13:28 44.5669 -106.5417 266° West 422 486 34,000  Level Denver Center
13:29 44.5575 -106.6989 265° West 423 487 34,000  Level Denver Center
13:29 44.5544 -106.7511 265° West 423 487 34,000  Level Salt Lake Center
13:30 44.5433 -106.9089 264° West 425 489 34,000  Level Salt Lake Center
13:31 44.5311 -107.0917 265° West 422 486 34,000  Level Salt Lake Center
13:32 44.5206 -107.2494 265° West 424 488 34,000  Level Salt Lake Center
13:33 44.5078 -107.4328 264° West 423 487 34,000  Level Salt Lake Center
13:34 44.4972 -107.5886 265° West 419 482 34,000  Level Salt Lake Center
13:36 44.4872 -107.7444 265° West 419 482 34,000  Level Salt Lake Center
13:37 44.4744 -107.9264 264° West 417 480 34,000  Level Salt Lake Center
13:38 44.4636 -108.0819 264° West 417 480 34,000  Level Salt Lake Center
13:39 44.4517 -108.2361 264° West 414 476 34,000  Level Salt Lake Center
13:40 44.4389 -108.4147 264° West 412 474 34,000  Level Salt Lake Center
13:41 44.4272 -108.5678 264° West 412 474 34,000  Level Salt Lake Center
13:42 44.4156 -108.7203 264° West 411 473 34,000  Level Salt Lake Center
13:43 44.4006 -108.8958 263° West 407 468 34,000  Level Salt Lake Center
13:44 44.3881 -109.0469 263° West 408 470 34,000  Level Salt Lake Center
13:45 44.3739 -109.2200 264° West 402 463 34,000  Level Salt Lake Center
13:46 44.3611 -109.3669 263° West 399 459 34,000  Level Salt Lake Center
13:47 44.3492 -109.5211 264° West 395 455 34,000  Level Salt Lake Center
13:48 44.3333 -109.6900 263° West 393 452 34,000  Level Salt Lake Center
13:49 44.3197 -109.8364 263° West 396 456 34,000  Level Salt Lake Center
13:50 44.3081 -109.9814 264° West 395 455 34,000  Level Salt Lake Center
13:51 44.2925 -110.1492 263° West 390 449 34,000  Level Salt Lake Center
13:52 44.2792 -110.2947 263° West 394 453 34,000  Level Salt Lake Center
13:53 44.2633 -110.4653 263° West 396 456 34,000  Level Salt Lake Center
13:54 44.2486 -110.6114 262° West 397 457 34,000  Level Salt Lake Center
13:55 44.2344 -110.7578 262° West 398 458 34,000  Level Salt Lake Center
13:56 44.2172 -110.9286 262° West 398 458 34,000  Level Salt Lake Center
13:57 44.2031 -111.0753 262° West 398 458 34,000  Level Salt Lake Center
13:58 44.1861 -111.2469 262° West 397 457 34,000  Level Salt Lake Center
13:59 44.1714 -111.3947 262° West 399 459 34,000  Level Salt Lake Center
14:00 44.1550 -111.5411 261° West 398 458 34,000  Level Salt Lake Center
14:01 44.1381 -111.7114 262° West 396 456 34,000  Level Salt Lake Center
14:02 44.1228 -111.8550 262° West 391 450 34,000  Level Salt Lake Center
14:03 44.1072 -111.9961 261° West 386 444 34,000  Level Salt Lake Center
14:04 44.0881 -112.1553 261° West 375 432 34,000  Level Salt Lake Center
14:05 44.0725 -112.2939 261° West 377 434 34,000  Level Salt Lake Center
14:06 44.0542 -112.4564 261° West 381 438 34,000  Level Salt Lake Center
14:07 44.0408 -112.5944 262° West 378 435 34,000  Level Salt Lake Center
14:08 44.0253 -112.7306 261° West 374 430 34,000  Level Salt Lake Center
14:09 44.0047 -112.8906 260° West 377 434 34,000  Level Salt Lake Center
14:10 43.9886 -113.0286 261° West 379 436 34,000  Level Salt Lake Center
14:11 43.9692 -113.1894 261° West 379 436 34,000  Level Salt Lake Center
14:12 43.9539 -113.3264 261° West 376 433 34,000  Level Salt Lake Center
14:13 43.9333 -113.4858 260° West 376 433 34,000  Level Salt Lake Center
14:14 43.9158 -113.6281 260° West 390 449 34,000  Level Salt Lake Center
14:15 43.8981 -113.7644 260° West 377 434 34,000  Level Salt Lake Center
14:17 43.8775 -113.9289 260° West 395 455 34,000  Level Salt Lake Center
14:18 43.8611 -114.0711 261° West 389 448 34,000  Level Salt Lake Center
14:19 43.8383 -114.2408 260° West 399 459 34,000  Level Salt Lake Center
14:20 43.8194 -114.3889 260° West 406 467 34,000 -1,320 Level Salt Lake Center
14:21 43.7967 -114.5592 260° West 401 461 31,400 -2,940 Descending Salt Lake Center
14:22 43.7778 -114.7036 260° West 399 459 28,000 -3,360 Descending Salt Lake Center
14:23 43.7581 -114.8456 259° West 394 453 24,600 -3,840 Descending Salt Lake Center
14:24 43.7356 -115.0097 259° West 391 450 20,200 -4,260 Descending Salt Lake Center
14:25 43.7178 -115.1464 260° West 377 434 15,900 -3,480 Descending Salt Lake Center
14:26 43.6969 -115.2975 259° West 358 412 13,100 -1,440 Descending Salt Lake Center
14:27 43.6781 -115.4256 259° West 346 398 13,000 -480 Descending Salt Lake Center
14:28 43.6608 -115.5592 260° West 337 388 12,200 -540 Descending Salt Lake Center
14:29 43.6292 -115.6761 250° West 309 356 12,000 -540 Descending Salt Lake Center
14:30 43.5869 -115.7669 237° Southwest 291 335 11,200 -1,260 Descending Salt Lake Center
14:31 43.5433 -115.8578 237° Southwest 273 314 9,400 -1,560 Descending Salt Lake Center
14:32 43.5019 -115.9378 235° Southwest 249 287 8,100 -1,320 Descending Salt Lake Center